Dubuque, IA

5:47 AM CST on December 16, 2019 (GMT -0600)
Dubuque Regional

Weather History for KDBQ - September, 2019

Change the Weather History Date:

Saturday, September 14, 2019

  Actual Average Record
Temperature  
Mean Temperature 64 °F 63 °F  
Max Temperature 75 °F 73 °F 97 °F (1939)
Min Temperature 51 °F 52 °F 34 °F (1974)
Degree Days  
Heating Degree Days 2 4  
Month to date heating degree days 24 39  
Since 1 July heating degree days 33 66  
Cooling Degree Days 0 2  
Month to date cooling degree days 41 41  
Year to date cooling degree days 614 617  
Growing Degree Days 14 (Base 50)    
Moisture  
Dew Point 58 °F    
Average Humidity 82    
Maximum Humidity 100    
Minimum Humidity 60    
Precipitation  
Precipitation 0.23 in 0.12 in 8.85 in (1967)
Month to date precipitation 7.45 1.65  
Year to date precipitation 38.58 27.63  
Snow  
Snow 0.00 in 0.00 in - ()
Month to date snowfall 0.0 0.0  
Since 1 July snowfall 0.0 0.0  
Since 1 September snowfall 0.0 0.0  
Snow Depth 0.00 in    
Sea Level Pressure  
Sea Level Pressure 30.13 in    
Wind  
Wind Speed 5 mph ()    
Max Wind Speed 21 mph    
Max Gust Speed 27 mph    
Visibility 10.0 miles    
Events Rain    
T = Trace of Precipitation, MM = Missing Value Source: Averaged Metar Reports

Daily Weather History Graph

Daily Weather History Graph

Search for Another Location

Airport or City:

Astronomy

Sep. 14, 2019 Rise Set
Actual Time 6:41 AM CDT 7:14 PM CDT
Civil Twilight 6:13 AM CDT 7:42 PM CDT
Nautical Twilight 5:39 AM CDT 8:16 PM CDT
Astronomical Twilight 5:05 AM CDT 8:50 PM CDT
Moon 7:55 PM CDT (9/14) 6:54 AM CDT (9/14)
Length of Visible Light 13h 29m
Length of Day
12h 33m
Full, 100% of the Moon is Illuminated
Sep 14
Full
Sep 21
Last Quarter
Sep 28
New
Oct 5
First Quarter
Oct 13
Full

Hourly Weather History & Observations

Time (CDT) Temp. Dew Point Humidity Pressure Visibility Wind Dir Wind Speed Gust Speed Precip Events Conditions
12:53 AM 53.1 °F 53.1 °F 100% 30.17 in 10.0 mi SSW 4.6 mph - N/A   Clear
1:53 AM 53.1 °F 53.1 °F 100% 30.17 in 10.0 mi Calm Calm - N/A   Clear
2:53 AM 51.1 °F 51.1 °F 100% 30.17 in 10.0 mi SW 4.6 mph - N/A   Clear
3:53 AM 53.1 °F 52.0 °F 96% 30.17 in 10.0 mi Calm Calm - N/A   Clear
4:53 AM 53.1 °F 52.0 °F 96% 30.17 in 10.0 mi Calm Calm - N/A   Partly Cloudy
5:53 AM 51.1 °F 50.0 °F 96% 30.18 in 10.0 mi South 3.5 mph - N/A   Clear
6:53 AM 52.0 °F 51.1 °F 97% 30.19 in 10.0 mi Calm Calm - N/A   Clear
7:53 AM 55.9 °F 55.0 °F 97% 30.19 in 10.0 mi Calm Calm - N/A   Clear
8:53 AM 61.0 °F 57.9 °F 90% 30.19 in 10.0 mi South 5.8 mph - N/A   Clear
9:53 AM 64.0 °F 59.0 °F 84% 30.21 in 10.0 mi South 10.4 mph - N/A   Scattered Clouds
10:53 AM 68.0 °F 60.1 °F 76% 30.19 in 10.0 mi SSW 8.1 mph - N/A   Mostly Cloudy
11:53 AM 72.0 °F 63.0 °F 73% 30.19 in 10.0 mi SSW 12.7 mph - N/A   Partly Cloudy
12:53 PM 75.0 °F 62.1 °F 64% 30.17 in 10.0 mi SW 13.8 mph - N/A   Clear
1:53 PM 75.9 °F 61.0 °F 60% 30.12 in 10.0 mi SSW 17.3 mph - N/A   Clear
2:53 PM 75.0 °F 61.0 °F 62% 30.12 in 10.0 mi South 8.1 mph - N/A   Clear
3:53 PM 75.9 °F 61.0 °F 60% 30.09 in 10.0 mi South 8.1 mph - N/A   Clear
4:53 PM 75.0 °F 62.1 °F 64% 30.05 in 10.0 mi South 12.7 mph 21.9 mph N/A   Clear
5:53 PM 71.1 °F 61.0 °F 70% 30.05 in 10.0 mi SSE 6.9 mph - N/A   Clear
6:53 PM 69.1 °F 61.0 °F 75% 30.06 in 10.0 mi SSE 9.2 mph - N/A   Clear
7:53 PM 66.9 °F 62.1 °F 84% 30.06 in 10.0 mi South 9.2 mph - N/A   Clear
8:53 PM 70.0 °F 60.1 °F 71% 30.05 in 10.0 mi SSW 9.2 mph 21.9 mph N/A   Clear
9:53 PM 69.1 °F 61.0 °F 75% 30.06 in 10.0 mi WSW 9.2 mph - N/A   Clear
10:53 PM 66.9 °F 62.1 °F 84% 30.08 in 10.0 mi SW 6.9 mph - 0.00 in Rain Light Rain
11:53 PM 66.0 °F 63.0 °F 90% 30.06 in 10.0 mi SSW 8.1 mph - 0.02 in   Mostly Cloudy